Time,TemperatureF,DewpointF,PressureIn,WindDirection,WindDirectionDegrees,WindSpeedMPH,WindSpeedGustMPH,Humidity,HourlyPrecipIn,Conditions,Clouds,dailyrainin,SoftwareType,DateUTC
2013-03-26 00:00:00,47.7,39.8,29.92,SSE,158,0.0,0.7,74,0.00,,,0.00,WUHU216HW,2013-03-26 07:00:00,
2013-03-26 00:05:00,47.7,39.8,29.92,SSE,158,0.0,0.0,74,0.00,,,0.00,WUHU216HW,2013-03-26 07:05:00,
2013-03-26 00:10:00,47.7,39.8,29.92,SSE,158,0.0,0.4,74,0.00,,,0.00,WUHU216HW,2013-03-26 07:10:00,
2013-03-26 00:15:00,47.7,39.8,29.91,SSE,158,0.0,0.9,74,0.00,,,0.00,WUHU216HW,2013-03-26 07:15:00,
2013-03-26 00:20:00,47.5,39.6,29.91,SSW,203,0.4,0.9,74,0.00,,,0.00,WUHU216HW,2013-03-26 07:20:00,
2013-03-26 00:25:00,47.5,39.6,29.91,SW,225,0.4,1.1,74,0.00,,,0.00,WUHU216HW,2013-03-26 07:25:00,
2013-03-26 00:30:00,47.5,40.0,29.91,SSE,158,0.4,1.6,75,0.00,,,0.00,WUHU216HW,2013-03-26 07:30:00,
2013-03-26 00:35:00,47.3,39.8,29.91,SSW,203,0.4,1.6,75,0.00,,,0.00,WUHU216HW,2013-03-26 07:35:00,
2013-03-26 00:40:00,47.2,39.6,29.91,SSE,158,1.6,2.9,75,0.00,,,0.00,WUHU216HW,2013-03-26 07:40:00,
2013-03-26 00:45:00,47.2,39.6,29.91,SSE,158,1.3,2.9,75,0.00,,,0.00,WUHU216HW,2013-03-26 07:45:00,
2013-03-26 00:50:00,47.0,39.8,29.91,SW,225,1.8,2.9,76,0.00,,,0.00,WUHU216HW,2013-03-26 07:50:00,
2013-03-26 00:55:00,47.0,39.4,29.91,SSW,203,0.7,2.9,75,0.00,,,0.00,WUHU216HW,2013-03-26 07:55:00,
2013-03-26 01:00:00,47.0,39.4,29.91,SE,135,1.1,2.2,75,0.00,,,0.00,WUHU216HW,2013-03-26 08:00:00,
2013-03-26 01:05:00,46.8,39.6,29.92,SSW,203,1.1,2.2,76,0.00,,,0.00,WUHU216HW,2013-03-26 08:05:00,
2013-03-26 01:10:00,46.8,39.6,29.92,South,180,0.4,1.8,76,0.00,,,0.00,WUHU216HW,2013-03-26 08:10:00,
2013-03-26 01:15:00,46.8,39.6,29.92,SW,225,1.1,2.0,76,0.00,,,0.00,WUHU216HW,2013-03-26 08:15:00,
2013-03-26 01:20:00,46.6,39.8,29.92,SSW,203,0.4,2.5,77,0.00,,,0.00,WUHU216HW,2013-03-26 08:20:00,
2013-03-26 01:25:00,46.6,39.8,29.92,SSW,203,2.2,2.5,77,0.00,,,0.00,WUHU216HW,2013-03-26 08:25:00,
2013-03-26 01:30:00,46.6,39.8,29.92,South,180,1.1,3.1,77,0.00,,,0.00,WUHU216HW,2013-03-26 08:30:00,
2013-03-26 01:35:00,46.4,39.7,29.92,SSW,203,1.6,3.1,77,0.00,,,0.00,WUHU216HW,2013-03-26 08:35:00,
2013-03-26 01:40:00,46.4,39.7,29.92,SSW,203,1.1,3.1,77,0.00,,,0.00,WUHU216HW,2013-03-26 08:40:00,
2013-03-26 01:45:00,46.4,40.0,29.92,SW,225,2.2,3.4,78,0.00,,,0.00,WUHU216HW,2013-03-26 08:45:00,
2013-03-26 01:50:00,46.4,40.0,29.91,WSW,248,1.8,3.8,78,0.00,,,0.00,WUHU216HW,2013-03-26 08:50:00,
2013-03-26 01:55:00,46.4,40.0,29.91,SSW,203,1.1,3.8,78,0.00,,,0.00,WUHU216HW,2013-03-26 08:55:00,
2013-03-26 02:00:00,46.4,40.0,29.92,SSW,203,1.1,3.1,78,0.00,,,0.00,WUHU216HW,2013-03-26 09:00:00,
2013-03-26 02:05:00,46.4,40.0,29.92,SSW,203,0.7,2.7,78,0.00,,,0.00,WUHU216HW,2013-03-26 09:05:00,
2013-03-26 02:10:00,46.4,40.0,29.92,SW,225,0.7,2.5,78,0.00,,,0.00,WUHU216HW,2013-03-26 09:10:00,
2013-03-26 02:15:00,46.4,40.0,29.92,SSW,203,1.3,2.5,78,0.00,,,0.00,WUHU216HW,2013-03-26 09:15:00,
2013-03-26 02:20:00,46.4,40.0,29.92,SW,225,1.6,2.5,78,0.00,,,0.00,WUHU216HW,2013-03-26 09:20:00,
2013-03-26 02:25:00,46.4,40.0,29.92,SW,225,0.4,3.4,78,0.00,,,0.00,WUHU216HW,2013-03-26 09:25:00,
2013-03-26 02:30:00,46.4,40.0,29.92,SSW,203,1.3,3.4,78,0.00,,,0.00,WUHU216HW,2013-03-26 09:30:00,
2013-03-26 02:35:00,46.4,40.0,29.92,SW,225,0.7,2.5,78,0.00,,,0.00,WUHU216HW,2013-03-26 09:35:00,
2013-03-26 02:40:00,46.4,39.7,29.92,South,180,0.4,2.5,77,0.00,,,0.00,WUHU216HW,2013-03-26 09:40:00,
2013-03-26 02:45:00,46.4,39.7,29.92,SSE,158,0.9,1.1,77,0.00,,,0.00,WUHU216HW,2013-03-26 09:45:00,
2013-03-26 02:50:00,46.4,39.7,29.92,SSE,158,0.4,1.3,77,0.00,,,0.00,WUHU216HW,2013-03-26 09:50:00,
2013-03-26 02:55:00,46.4,40.0,29.92,SSE,158,1.6,1.6,78,0.00,,,0.00,WUHU216HW,2013-03-26 09:55:00,
2013-03-26 03:00:00,46.4,40.0,29.92,SSE,158,0.2,1.6,78,0.00,,,0.00,WUHU216HW,2013-03-26 10:00:00,
2013-03-26 03:05:00,46.3,39.8,29.92,South,180,0.0,1.1,78,0.00,,,0.00,WUHU216HW,2013-03-26 10:05:00,
2013-03-26 03:10:00,46.3,40.1,29.92,SSW,203,0.2,0.7,79,0.00,,,0.00,WUHU216HW,2013-03-26 10:10:00,
2013-03-26 03:15:00,46.3,40.1,29.92,SSE,158,0.2,0.7,79,0.00,,,0.00,WUHU216HW,2013-03-26 10:15:00,
2013-03-26 03:20:00,46.1,40.0,29.92,SSE,158,0.4,0.9,79,0.00,,,0.00,WUHU216HW,2013-03-26 10:20:00,
2013-03-26 03:25:00,46.1,40.0,29.92,SSE,158,0.4,1.3,79,0.00,,,0.00,WUHU216HW,2013-03-26 10:25:00,
2013-03-26 03:30:00,46.1,40.3,29.92,SSE,158,1.1,1.6,80,0.00,,,0.00,WUHU216HW,2013-03-26 10:30:00,
2013-03-26 03:35:00,46.1,40.3,29.92,South,180,1.1,1.6,80,0.00,,,0.00,WUHU216HW,2013-03-26 10:35:00,
2013-03-26 03:40:00,45.9,40.1,29.92,SSE,158,0.0,1.3,80,0.00,,,0.00,WUHU216HW,2013-03-26 10:40:00,
2013-03-26 03:45:00,45.9,40.1,29.92,SSE,158,0.2,1.3,80,0.00,,,0.00,WUHU216HW,2013-03-26 10:45:00,
2013-03-26 03:50:00,45.7,40.2,29.92,SSE,158,0.2,0.7,81,0.00,,,0.00,WUHU216HW,2013-03-26 10:50:00,
2013-03-26 03:55:00,45.7,40.2,29.92,SE,135,0.7,1.6,81,0.00,,,0.00,WUHU216HW,2013-03-26 10:55:00,
2013-03-26 04:00:00,45.7,40.2,29.92,SSE,158,1.3,1.8,81,0.00,,,0.00,WUHU216HW,2013-03-26 11:00:00,
2013-03-26 04:05:00,45.7,40.2,29.92,SSE,158,0.7,1.8,81,0.00,,,0.00,WUHU216HW,2013-03-26 11:05:00,
2013-03-26 04:10:00,45.7,40.6,29.92,SSE,158,0.4,1.8,82,0.00,,,0.00,WUHU216HW,2013-03-26 11:10:00,
2013-03-26 04:15:00,45.7,40.6,29.92,South,180,0.4,1.1,82,0.00,,,0.00,WUHU216HW,2013-03-26 11:15:00,
2013-03-26 04:20:00,45.7,40.6,29.92,SSE,158,0.4,1.6,82,0.00,,,0.00,WUHU216HW,2013-03-26 11:20:00,
2013-03-26 04:25:00,45.7,40.9,29.92,SW,225,1.3,1.6,83,0.00,,,0.00,WUHU216HW,2013-03-26 11:25:00,
2013-03-26 04:30:00,45.7,40.9,29.92,SSW,203,1.3,2.5,83,0.00,,,0.00,WUHU216HW,2013-03-26 11:30:00,
2013-03-26 04:35:00,45.5,40.7,29.92,South,180,0.4,2.5,83,0.00,,,0.00,WUHU216HW,2013-03-26 11:35:00,
2013-03-26 04:40:00,45.5,41.1,29.92,SSE,158,0.4,2.0,84,0.00,,,0.00,WUHU216HW,2013-03-26 11:40:00,
2013-03-26 04:45:00,45.5,41.1,29.92,SSW,203,0.4,2.5,84,0.00,,,0.00,WUHU216HW,2013-03-26 11:45:00,
2013-03-26 04:50:00,45.5,41.3,29.92,SSE,158,0.4,2.7,85,0.00,,,0.00,WUHU216HW,2013-03-26 11:50:00,
2013-03-26 04:55:00,45.4,40.9,29.92,SSW,203,1.1,2.7,84,0.00,,,0.00,WUHU216HW,2013-03-26 11:55:00,
2013-03-26 05:00:00,45.4,41.1,29.92,SSW,203,0.7,1.3,85,0.00,,,0.00,WUHU216HW,2013-03-26 12:00:00,
2013-03-26 05:05:00,45.4,41.1,29.92,SSW,203,0.2,1.3,85,0.00,,,0.00,WUHU216HW,2013-03-26 12:05:00,
2013-03-26 05:10:00,45.4,41.1,29.92,SSW,203,0.4,1.8,85,0.00,,,0.00,WUHU216HW,2013-03-26 12:10:00,
2013-03-26 05:15:00,45.4,41.1,29.93,SSW,203,1.8,1.8,85,0.00,,,0.00,WUHU216HW,2013-03-26 12:15:00,
2013-03-26 05:20:00,45.4,41.1,29.93,SSW,203,1.1,1.8,85,0.00,,,0.00,WUHU216HW,2013-03-26 12:20:00,
2013-03-26 05:25:00,45.4,41.1,29.93,SSW,203,0.9,1.8,85,0.00,,,0.00,WUHU216HW,2013-03-26 12:25:00,
2013-03-26 05:30:00,45.2,41.0,29.93,SSE,158,0.2,1.8,85,0.00,,,0.00,WUHU216HW,2013-03-26 12:30:00,
2013-03-26 05:35:00,45.2,41.0,29.93,SSW,203,1.3,1.8,85,0.00,,,0.00,WUHU216HW,2013-03-26 12:35:00,
2013-03-26 05:40:00,45.2,41.2,29.93,SSE,158,0.0,2.2,86,0.00,,,0.00,WUHU216HW,2013-03-26 12:40:00,
2013-03-26 05:45:00,45.2,41.2,29.93,SSE,158,0.4,2.2,86,0.00,,,0.00,WUHU216HW,2013-03-26 12:45:00,
2013-03-26 05:50:00,45.2,41.2,29.93,SSE,158,0.4,1.8,86,0.00,,,0.00,WUHU216HW,2013-03-26 12:50:00,
2013-03-26 05:55:00,45.2,41.2,29.93,SSW,203,0.4,1.8,86,0.00,,,0.00,WUHU216HW,2013-03-26 12:55:00,
2013-03-26 06:00:00,45.2,41.2,29.93,SSW,203,0.4,1.8,86,0.00,,,0.00,WUHU216HW,2013-03-26 13:00:00,
2013-03-26 06:05:00,45.2,41.6,29.94,South,180,0.0,1.8,87,0.00,,,0.00,WUHU216HW,2013-03-26 13:05:00,
2013-03-26 06:10:00,45.2,41.6,29.93,SW,225,1.3,1.8,87,0.00,,,0.00,WUHU216HW,2013-03-26 13:10:00,
2013-03-26 06:15:00,45.2,41.6,29.93,SW,225,1.3,2.0,87,0.00,,,0.00,WUHU216HW,2013-03-26 13:15:00,
2013-03-26 06:20:00,45.2,41.6,29.93,South,180,0.7,2.0,87,0.00,,,0.00,WUHU216HW,2013-03-26 13:20:00,
2013-03-26 06:25:00,45.0,41.7,29.94,SSW,203,0.4,1.3,88,0.00,,,0.00,WUHU216HW,2013-03-26 13:25:00,
2013-03-26 06:30:00,45.0,41.7,29.94,South,180,0.9,1.3,88,0.00,,,0.00,WUHU216HW,2013-03-26 13:30:00,
2013-03-26 06:35:00,45.0,41.7,29.94,WSW,248,0.7,1.3,88,0.00,,,0.00,WUHU216HW,2013-03-26 13:35:00,
2013-03-26 06:40:00,45.0,41.7,29.94,SSW,203,0.4,1.1,88,0.00,,,0.00,WUHU216HW,2013-03-26 13:40:00,
2013-03-26 06:45:00,45.0,41.7,29.94,South,180,0.4,1.1,88,0.00,,,0.00,WUHU216HW,2013-03-26 13:45:00,
2013-03-26 06:50:00,45.2,41.9,29.94,SSW,203,0.4,0.7,88,0.00,,,0.00,WUHU216HW,2013-03-26 13:50:00,
2013-03-26 06:55:00,45.7,42.8,29.94,SSW,203,0.4,0.7,89,0.00,,,0.00,WUHU216HW,2013-03-26 13:55:00,
2013-03-26 07:00:00,46.4,43.5,29.94,SSW,203,0.7,0.7,89,0.00,,,0.00,WUHU216HW,2013-03-26 14:00:00,
2013-03-26 07:05:00,46.8,43.5,29.94,SSE,158,0.0,0.7,88,0.00,,,0.00,WUHU216HW,2013-03-26 14:05:00,
2013-03-26 07:10:00,47.0,43.7,29.94,SW,225,0.2,0.7,88,0.00,,,0.00,WUHU216HW,2013-03-26 14:10:00,
2013-03-26 07:15:00,47.0,43.4,29.94,SSE,158,0.0,1.1,87,0.00,,,0.00,WUHU216HW,2013-03-26 14:15:00,
2013-03-26 07:20:00,47.2,43.6,29.94,SSW,203,0.9,1.1,87,0.00,,,0.00,WUHU216HW,2013-03-26 14:20:00,
2013-03-26 07:25:00,47.2,43.6,29.94,SSE,158,0.9,1.1,87,0.00,,,0.00,WUHU216HW,2013-03-26 14:25:00,
2013-03-26 07:30:00,47.2,43.6,29.94,SW,225,0.0,1.3,87,0.00,,,0.00,WUHU216HW,2013-03-26 14:30:00,
2013-03-26 07:35:00,47.2,43.6,29.94,SSE,158,0.7,1.3,87,0.00,,,0.00,WUHU216HW,2013-03-26 14:35:00,
2013-03-26 07:40:00,47.3,43.7,29.95,South,180,0.2,1.1,87,0.00,,,0.00,WUHU216HW,2013-03-26 14:40:00,
2013-03-26 07:45:00,47.2,43.6,29.95,SE,135,0.0,1.1,87,0.00,,,0.00,WUHU216HW,2013-03-26 14:45:00,
2013-03-26 07:50:00,47.3,43.7,29.95,SSE,158,0.7,1.1,87,0.00,,,0.00,WUHU216HW,2013-03-26 14:50:00,
2013-03-26 07:55:00,47.0,43.0,29.95,SSW,203,0.7,1.1,86,0.00,,,0.00,WUHU216HW,2013-03-26 14:55:00,
2013-03-26 08:00:00,46.6,43.0,29.95,SSW,203,0.4,1.1,87,0.00,,,0.00,WUHU216HW,2013-03-26 15:00:00,
2013-03-26 08:05:00,46.4,42.9,29.95,SSE,158,0.9,1.1,87,0.00,,,0.00,WUHU216HW,2013-03-26 15:05:00,
2013-03-26 08:10:00,46.4,42.9,29.95,SSE,158,0.7,1.1,87,0.00,,,0.00,WUHU216HW,2013-03-26 15:10:00,
2013-03-26 08:15:00,46.3,42.9,29.95,SSW,203,0.4,1.1,88,0.00,,,0.00,WUHU216HW,2013-03-26 15:15:00,
2013-03-26 08:20:00,46.3,42.9,29.95,SE,135,0.4,0.9,88,0.00,,,0.00,WUHU216HW,2013-03-26 15:20:00,
2013-03-26 08:25:00,46.3,42.9,29.95,SSW,203,0.4,1.1,88,0.00,,,0.00,WUHU216HW,2013-03-26 15:25:00,
2013-03-26 08:30:00,46.3,42.9,29.95,SE,135,1.3,1.3,88,0.00,,,0.00,WUHU216HW,2013-03-26 15:30:00,
2013-03-26 08:35:00,46.1,42.8,29.95,SSW,203,0.7,1.8,88,0.00,,,0.00,WUHU216HW,2013-03-26 15:35:00,
2013-03-26 08:40:00,46.3,42.9,29.95,SSW,203,0.9,1.8,88,0.00,,,0.00,WUHU216HW,2013-03-26 15:40:00,
2013-03-26 08:45:00,46.3,42.9,29.95,SSW,203,1.3,1.6,88,0.00,,,0.00,WUHU216HW,2013-03-26 15:45:00,
2013-03-26 08:50:00,46.3,43.3,29.95,South,180,1.3,2.5,89,0.00,,,0.00,WUHU216HW,2013-03-26 15:50:00,
2013-03-26 08:55:00,46.3,43.3,29.95,SSW,203,1.8,2.5,89,0.00,,,0.00,WUHU216HW,2013-03-26 15:55:00,
2013-03-26 09:00:00,46.3,43.3,29.95,SSE,158,0.7,1.8,89,0.00,,,0.00,WUHU216HW,2013-03-26 16:00:00,
2013-03-26 09:05:00,46.4,43.5,29.95,SSE,158,0.7,1.8,89,0.00,,,0.00,WUHU216HW,2013-03-26 16:05:00,
2013-03-26 09:10:00,46.4,43.5,29.95,SSE,158,1.8,1.8,89,0.00,,,0.00,WUHU216HW,2013-03-26 16:10:00,
2013-03-26 09:15:00,46.4,43.5,29.95,SE,135,0.7,2.0,89,0.00,,,0.00,WUHU216HW,2013-03-26 16:15:00,
2013-03-26 09:20:00,46.4,43.5,29.95,SSE,158,0.4,2.0,89,0.00,,,0.00,WUHU216HW,2013-03-26 16:20:00,
2013-03-26 09:25:00,46.6,43.7,29.96,SW,225,0.4,1.8,89,0.00,,,0.00,WUHU216HW,2013-03-26 16:25:00,
2013-03-26 09:30:00,46.8,43.8,29.95,SSW,203,0.4,1.8,89,0.00,,,0.00,WUHU216HW,2013-03-26 16:30:00,
2013-03-26 09:35:00,47.0,44.3,29.95,SSW,203,1.1,1.6,90,0.00,,,0.00,WUHU216HW,2013-03-26 16:35:00,
2013-03-26 09:40:00,47.2,44.2,29.96,SSE,158,0.7,1.6,89,0.00,,,0.00,WUHU216HW,2013-03-26 16:40:00,
2013-03-26 09:45:00,47.2,44.2,29.96,South,180,0.4,1.8,89,0.00,,,0.00,WUHU216HW,2013-03-26 16:45:00,
2013-03-26 09:50:00,47.2,44.2,29.96,SSW,203,0.7,1.8,89,0.00,,,0.00,WUHU216HW,2013-03-26 16:50:00,
2013-03-26 09:55:00,47.3,44.4,29.96,SSE,158,0.4,1.6,89,0.00,,,0.00,WUHU216HW,2013-03-26 16:55:00,
2013-03-26 10:00:00,47.7,44.6,29.96,SSW,203,1.3,1.6,89,0.00,,,0.00,WUHU216HW,2013-03-26 17:00:00,
2013-03-26 10:05:00,47.7,44.4,29.96,SSW,203,0.7,1.6,88,0.00,,,0.00,WUHU216HW,2013-03-26 17:05:00,
2013-03-26 10:10:00,47.9,44.8,29.96,SSE,158,0.2,1.6,89,0.00,,,0.00,WUHU216HW,2013-03-26 17:10:00,
2013-03-26 10:15:00,48.2,44.9,29.96,SSW,203,1.3,1.3,88,0.00,,,0.00,WUHU216HW,2013-03-26 17:15:00,
2013-03-26 10:20:00,48.2,44.9,29.96,SE,135,0.9,1.3,88,0.00,,,0.00,WUHU216HW,2013-03-26 17:20:00,
2013-03-26 10:25:00,48.2,44.9,29.96,SE,135,2.0,2.5,88,0.00,,,0.00,WUHU216HW,2013-03-26 17:25:00,
2013-03-26 10:30:00,48.2,44.9,29.96,SW,225,1.1,2.5,88,0.00,,,0.00,WUHU216HW,2013-03-26 17:30:00,
2013-03-26 10:35:00,48.4,45.1,29.96,SSE,158,0.2,2.0,88,0.00,,,0.00,WUHU216HW,2013-03-26 17:35:00,
2013-03-26 10:40:00,48.6,45.2,29.96,SW,225,1.1,1.6,88,0.00,,,0.00,WUHU216HW,2013-03-26 17:40:00,
2013-03-26 10:45:00,48.8,45.4,29.96,SSE,158,0.7,1.8,88,0.00,,,0.00,WUHU216HW,2013-03-26 17:45:00,
2013-03-26 10:50:00,49.0,45.3,29.96,South,180,0.7,1.8,87,0.00,,,0.00,WUHU216HW,2013-03-26 17:50:00,
2013-03-26 10:55:00,49.0,45.3,29.96,SE,135,0.4,1.8,87,0.00,,,0.00,WUHU216HW,2013-03-26 17:55:00,
2013-03-26 11:00:00,49.1,45.4,29.96,SW,225,0.2,1.8,87,0.00,,,0.00,WUHU216HW,2013-03-26 18:00:00,
2013-03-26 11:05:00,49.3,45.5,29.96,SSW,203,0.4,1.8,87,0.00,,,0.00,WUHU216HW,2013-03-26 18:05:00,
2013-03-26 11:10:00,49.5,45.7,29.96,SSE,158,0.4,1.8,87,0.00,,,0.00,WUHU216HW,2013-03-26 18:10:00,
2013-03-26 11:15:00,49.9,45.8,29.96,South,180,0.4,1.8,86,0.00,,,0.00,WUHU216HW,2013-03-26 18:15:00,
2013-03-26 11:20:00,50.2,46.1,29.96,South,180,1.1,2.5,86,0.00,,,0.00,WUHU216HW,2013-03-26 18:20:00,
2013-03-26 11:25:00,50.8,47.0,29.96,WSW,248,1.1,2.5,87,0.00,,,0.00,WUHU216HW,2013-03-26 18:25:00,
2013-03-26 11:30:00,51.1,47.0,29.96,SW,225,0.7,2.2,86,0.00,,,0.00,WUHU216HW,2013-03-26 18:30:00,
2013-03-26 11:35:00,51.1,47.0,29.96,SW,225,1.1,2.2,86,0.00,,,0.00,WUHU216HW,2013-03-26 18:35:00,
2013-03-26 11:40:00,51.3,46.9,29.96,WSW,248,1.3,2.7,85,0.00,,,0.00,WUHU216HW,2013-03-26 18:40:00,
2013-03-26 11:45:00,51.5,46.8,29.96,SW,225,0.9,2.7,84,0.00,,,0.00,WUHU216HW,2013-03-26 18:45:00,
2013-03-26 11:50:00,51.7,47.0,29.96,SE,135,0.4,1.8,84,0.00,,,0.00,WUHU216HW,2013-03-26 18:50:00,
2013-03-26 11:55:00,52.0,47.4,29.96,SW,225,0.0,1.6,84,0.00,,,0.00,WUHU216HW,2013-03-26 18:55:00,
2013-03-26 12:00:00,52.4,47.3,29.96,SW,225,1.3,1.6,83,0.00,,,0.00,WUHU216HW,2013-03-26 19:00:00,
2013-03-26 12:05:00,52.9,47.6,29.96,South,180,0.0,1.6,82,0.00,,,0.00,WUHU216HW,2013-03-26 19:05:00,
2013-03-26 12:10:00,53.3,48.0,29.95,SW,225,0.4,1.3,82,0.00,,,0.00,WUHU216HW,2013-03-26 19:10:00,
2013-03-26 12:15:00,53.8,48.2,29.96,WSW,248,0.0,1.6,81,0.00,,,0.00,WUHU216HW,2013-03-26 19:15:00,
2013-03-26 12:20:00,54.0,48.1,29.96,WSW,248,0.7,2.2,80,0.00,,,0.00,WUHU216HW,2013-03-26 19:20:00,
2013-03-26 12:25:00,54.0,48.1,29.96,South,180,1.3,2.2,80,0.00,,,0.00,WUHU216HW,2013-03-26 19:25:00,
2013-03-26 12:30:00,54.0,47.7,29.96,SW,225,1.3,1.8,79,0.00,,,0.00,WUHU216HW,2013-03-26 19:30:00,
2013-03-26 12:35:00,53.8,47.2,29.96,West,270,0.7,1.8,78,0.00,,,0.00,WUHU216HW,2013-03-26 19:35:00,
2013-03-26 12:40:00,53.8,47.2,29.96,SW,225,0.0,1.8,78,0.00,,,0.00,WUHU216HW,2013-03-26 19:40:00,
2013-03-26 12:45:00,54.2,47.5,29.95,SSE,158,1.6,1.6,78,0.00,,,0.00,WUHU216HW,2013-03-26 19:45:00,
2013-03-26 12:50:00,54.4,47.6,29.95,SE,135,1.1,1.8,78,0.00,,,0.00,WUHU216HW,2013-03-26 19:50:00,
2013-03-26 12:55:00,54.7,48.0,29.95,SSW,203,0.4,1.8,78,0.00,,,0.00,WUHU216HW,2013-03-26 19:55:00,
2013-03-26 13:00:00,55.1,48.0,29.95,NW,315,0.2,1.1,77,0.00,,,0.00,WUHU216HW,2013-03-26 20:00:00,
2013-03-26 13:05:00,55.6,48.5,29.95,SSE,158,0.7,1.3,77,0.00,,,0.00,WUHU216HW,2013-03-26 20:05:00,
2013-03-26 13:10:00,56.0,48.5,29.95,South,180,1.1,1.3,76,0.00,,,0.00,WUHU216HW,2013-03-26 20:10:00,
2013-03-26 13:15:00,56.2,48.3,29.95,WSW,248,0.4,2.5,75,0.00,,,0.00,WUHU216HW,2013-03-26 20:15:00,
2013-03-26 13:20:00,56.0,47.4,29.95,ENE,68,0.4,2.5,73,0.00,,,0.00,WUHU216HW,2013-03-26 20:20:00,
2013-03-26 13:25:00,55.1,46.6,29.95,NW,315,0.4,1.6,73,0.00,,,0.00,WUHU216HW,2013-03-26 20:25:00,
2013-03-26 13:30:00,55.1,47.3,29.95,NW,315,0.7,1.8,75,0.00,,,0.00,WUHU216HW,2013-03-26 20:30:00,
2013-03-26 13:35:00,55.1,47.3,29.95,North,0,0.4,1.8,75,0.00,,,0.00,WUHU216HW,2013-03-26 20:35:00,
2013-03-26 13:40:00,54.5,47.1,29.96,NW,315,0.2,1.1,76,0.00,,,0.00,WUHU216HW,2013-03-26 20:40:00,
2013-03-26 13:45:00,54.4,46.6,29.95,SW,225,0.4,1.1,75,0.00,,,0.00,WUHU216HW,2013-03-26 20:45:00,
2013-03-26 13:50:00,54.7,47.3,29.95,SSW,203,1.1,2.0,76,0.00,,,0.00,WUHU216HW,2013-03-26 20:50:00,
2013-03-26 13:55:00,54.7,46.9,29.95,North,0,0.0,2.0,75,0.00,,,0.00,WUHU216HW,2013-03-26 20:55:00,
2013-03-26 14:00:00,54.5,46.8,29.95,NE,45,0.4,1.1,75,0.00,,,0.00,WUHU216HW,2013-03-26 21:00:00,
2013-03-26 14:05:00,54.7,46.9,29.95,WNW,293,0.0,0.7,75,0.00,,,0.00,WUHU216HW,2013-03-26 21:05:00,
2013-03-26 14:10:00,55.1,47.6,29.95,WSW,248,0.2,1.3,76,0.00,,,0.00,WUHU216HW,2013-03-26 21:10:00,
2013-03-26 14:15:00,55.4,47.6,29.95,South,180,0.7,2.0,75,0.00,,,0.00,WUHU216HW,2013-03-26 21:15:00,
2013-03-26 14:20:00,55.8,48.0,29.95,SSW,203,1.3,2.0,75,0.00,,,0.00,WUHU216HW,2013-03-26 21:20:00,
2013-03-26 14:25:00,55.8,47.6,29.95,SSE,158,1.6,1.8,74,0.00,,,0.00,WUHU216HW,2013-03-26 21:25:00,
2013-03-26 14:30:00,55.8,47.6,29.95,NNE,23,0.4,1.8,74,0.00,,,0.00,WUHU216HW,2013-03-26 21:30:00,
2013-03-26 14:35:00,55.4,46.9,29.94,NNE,23,0.0,1.6,73,0.00,,,0.00,WUHU216HW,2013-03-26 21:35:00,
2013-03-26 14:40:00,55.4,47.3,29.94,SSE,158,0.4,1.3,74,0.00,,,0.00,WUHU216HW,2013-03-26 21:40:00,
2013-03-26 14:45:00,56.0,47.8,29.94,SSW,203,0.0,1.3,74,0.00,,,0.00,WUHU216HW,2013-03-26 21:45:00,
2013-03-26 14:50:00,56.3,47.8,29.94,SW,225,0.9,1.8,73,0.00,,,0.00,WUHU216HW,2013-03-26 21:50:00,
2013-03-26 14:55:00,56.5,48.0,29.94,SSE,158,0.0,1.8,73,0.00,,,0.00,WUHU216HW,2013-03-26 21:55:00,
2013-03-26 15:00:00,56.9,48.2,29.94,SSE,158,2.5,2.5,73,0.00,,,0.00,WUHU216HW,2013-03-26 22:00:00,
2013-03-26 15:05:00,57.1,48.1,29.94,South,180,0.0,2.5,72,0.00,,,0.00,WUHU216HW,2013-03-26 22:05:00,
2013-03-26 15:10:00,57.1,48.1,29.93,SSW,203,0.4,2.5,72,0.00,,,0.00,WUHU216HW,2013-03-26 22:10:00,
2013-03-26 15:15:00,56.9,47.5,29.93,SSW,203,0.0,2.2,71,0.00,,,0.00,WUHU216HW,2013-03-26 22:15:00,
2013-03-26 15:20:00,56.9,47.5,29.93,NNE,23,0.0,1.3,71,0.00,,,0.00,WUHU216HW,2013-03-26 22:20:00,
2013-03-26 15:25:00,56.5,46.1,29.93,NNE,23,1.6,1.8,68,0.00,,,0.00,WUHU216HW,2013-03-26 22:25:00,
2013-03-26 15:30:00,55.4,45.9,29.93,ENE,68,0.0,1.8,70,0.00,,,0.00,WUHU216HW,2013-03-26 22:30:00,
2013-03-26 15:35:00,55.4,45.9,29.93,ENE,68,1.6,2.5,70,0.00,,,0.00,WUHU216HW,2013-03-26 22:35:00,
2013-03-26 15:40:00,55.1,45.9,29.93,ENE,68,0.4,2.5,71,0.00,,,0.00,WUHU216HW,2013-03-26 22:40:00,
2013-03-26 15:45:00,55.1,45.9,29.93,NE,45,0.0,2.5,71,0.00,,,0.00,WUHU216HW,2013-03-26 22:45:00,
2013-03-26 15:50:00,55.6,46.7,29.93,SSE,158,1.3,1.3,72,0.00,,,0.00,WUHU216HW,2013-03-26 22:50:00,
2013-03-26 15:55:00,56.0,47.1,29.93,SSW,203,0.9,2.0,72,0.00,,,0.00,WUHU216HW,2013-03-26 22:55:00,
2013-03-26 16:00:00,56.3,46.7,29.93,ENE,68,0.4,2.5,70,0.00,,,0.00,WUHU216HW,2013-03-26 23:00:00,
2013-03-26 16:05:00,56.2,46.5,29.92,North,0,0.4,3.4,70,0.00,,,0.00,WUHU216HW,2013-03-26 23:05:00,
2013-03-26 16:10:00,55.8,46.5,29.92,ENE,68,2.2,3.4,71,0.00,,,0.00,WUHU216HW,2013-03-26 23:10:00,
2013-03-26 16:15:00,55.4,46.3,29.92,ENE,68,0.4,3.4,71,0.00,,,0.00,WUHU216HW,2013-03-26 23:15:00,
2013-03-26 16:20:00,55.8,46.3,29.92,NNE,23,1.1,2.9,70,0.00,,,0.00,WUHU216HW,2013-03-26 23:20:00,
2013-03-26 16:25:00,55.8,46.3,29.92,ESE,113,0.9,2.2,70,0.00,,,0.00,WUHU216HW,2013-03-26 23:25:00,
2013-03-26 16:30:00,56.2,46.9,29.92,SSE,158,0.4,2.2,71,0.00,,,0.00,WUHU216HW,2013-03-26 23:30:00,
2013-03-26 16:35:00,56.7,47.1,29.92,ENE,68,0.2,1.8,70,0.00,,,0.00,WUHU216HW,2013-03-26 23:35:00,
2013-03-26 16:40:00,56.9,47.2,29.92,SSE,158,0.7,1.8,70,0.00,,,0.00,WUHU216HW,2013-03-26 23:40:00,
2013-03-26 16:45:00,56.9,46.5,29.92,NNE,23,1.1,1.8,68,0.00,,,0.00,WUHU216HW,2013-03-26 23:45:00,
2013-03-26 16:50:00,56.3,46.3,29.92,NNE,23,0.4,1.8,69,0.00,,,0.00,WUHU216HW,2013-03-26 23:50:00,
2013-03-26 16:55:00,56.3,46.7,29.92,South,180,0.0,1.8,70,0.00,,,0.00,WUHU216HW,2013-03-26 23:55:00,
2013-03-26 17:00:00,56.5,46.9,29.91,SSE,158,0.0,1.3,70,0.00,,,0.00,WUHU216HW,2013-03-27 00:00:00,
2013-03-26 17:05:00,56.7,47.1,29.91,SSE,158,0.2,1.3,70,0.00,,,0.00,WUHU216HW,2013-03-27 00:05:00,
2013-03-26 17:10:00,56.5,46.4,29.91,NNE,23,1.1,2.7,69,0.00,,,0.00,WUHU216HW,2013-03-27 00:10:00,
2013-03-26 17:15:00,55.8,46.5,29.91,SSE,158,1.1,2.7,71,0.00,,,0.00,WUHU216HW,2013-03-27 00:15:00,
2013-03-26 17:20:00,55.8,46.5,29.91,NE,45,1.8,1.8,71,0.00,,,0.00,WUHU216HW,2013-03-27 00:20:00,
2013-03-26 17:25:00,55.4,46.3,29.91,SSE,158,1.8,2.0,71,0.00,,,0.00,WUHU216HW,2013-03-27 00:25:00,
2013-03-26 17:30:00,55.8,46.9,29.91,SSE,158,0.7,2.0,72,0.00,,,0.00,WUHU216HW,2013-03-27 00:30:00,
2013-03-26 17:35:00,56.2,46.9,29.91,ENE,68,0.2,1.8,71,0.00,,,0.00,WUHU216HW,2013-03-27 00:35:00,
2013-03-26 17:40:00,56.5,47.3,29.91,SSW,203,1.1,1.6,71,0.00,,,0.00,WUHU216HW,2013-03-27 00:40:00,
2013-03-26 17:45:00,56.3,46.7,29.91,East,90,0.2,2.7,70,0.00,,,0.00,WUHU216HW,2013-03-27 00:45:00,
2013-03-26 17:50:00,56.2,46.9,29.91,East,90,0.9,2.7,71,0.00,,,0.00,WUHU216HW,2013-03-27 00:50:00,
2013-03-26 17:55:00,56.2,46.9,29.91,ENE,68,0.0,2.2,71,0.00,,,0.00,WUHU216HW,2013-03-27 00:55:00,
2013-03-26 18:00:00,55.8,46.5,29.90,ENE,68,1.6,2.5,71,0.00,,,0.00,WUHU216HW,2013-03-27 01:00:00,
2013-03-26 18:05:00,55.6,46.5,29.90,NE,45,0.2,2.5,71,0.00,,,0.00,WUHU216HW,2013-03-27 01:05:00,
2013-03-26 18:10:00,55.1,46.3,29.91,NE,45,0.4,1.8,72,0.00,,,0.00,WUHU216HW,2013-03-27 01:10:00,
2013-03-26 18:15:00,55.1,46.6,29.91,ENE,68,2.2,2.2,73,0.00,,,0.00,WUHU216HW,2013-03-27 01:15:00,
2013-03-26 18:20:00,55.1,46.6,29.91,NNE,23,0.4,2.2,73,0.00,,,0.00,WUHU216HW,2013-03-27 01:20:00,
2013-03-26 18:25:00,54.9,46.5,29.91,ENE,68,0.4,2.2,73,0.00,,,0.00,WUHU216HW,2013-03-27 01:25:00,
2013-03-26 18:30:00,54.9,46.5,29.91,SE,135,0.0,1.1,73,0.00,,,0.00,WUHU216HW,2013-03-27 01:30:00,
2013-03-26 18:35:00,54.9,46.7,29.90,ENE,68,1.1,2.5,74,0.00,,,0.00,WUHU216HW,2013-03-27 01:35:00,
2013-03-26 18:40:00,54.7,46.6,29.90,NNE,23,1.1,2.5,74,0.00,,,0.00,WUHU216HW,2013-03-27 01:40:00,
2013-03-26 18:45:00,54.4,46.6,29.91,NNE,23,0.0,1.8,75,0.00,,,0.00,WUHU216HW,2013-03-27 01:45:00,
2013-03-26 18:50:00,54.2,46.5,29.92,NNE,23,0.4,1.1,75,0.00,,,0.00,WUHU216HW,2013-03-27 01:50:00,
2013-03-26 18:55:00,54.2,46.5,29.92,North,0,0.9,0.9,75,0.00,,,0.00,WUHU216HW,2013-03-27 01:55:00,
2013-03-26 19:00:00,53.8,46.1,29.92,ENE,68,0.2,0.9,75,0.00,,,0.00,WUHU216HW,2013-03-27 02:00:00,
2013-03-26 19:05:00,53.8,46.1,29.92,ENE,68,0.4,1.1,75,0.00,,,0.00,WUHU216HW,2013-03-27 02:05:00,
2013-03-26 19:10:00,54.0,46.3,29.91,ENE,68,0.0,1.1,75,0.00,,,0.00,WUHU216HW,2013-03-27 02:10:00,
2013-03-26 19:15:00,53.8,46.1,29.92,ENE,68,0.0,1.1,75,0.00,,,0.00,WUHU216HW,2013-03-27 02:15:00,
2013-03-26 19:20:00,53.8,46.1,29.91,ENE,68,0.9,1.1,75,0.00,,,0.00,WUHU216HW,2013-03-27 02:20:00,
2013-03-26 19:25:00,53.8,46.1,29.91,East,90,0.4,0.9,75,0.00,,,0.00,WUHU216HW,2013-03-27 02:25:00,
2013-03-26 19:30:00,53.8,46.1,29.92,ENE,68,0.2,0.9,75,0.00,,,0.00,WUHU216HW,2013-03-27 02:30:00,
2013-03-26 19:35:00,53.6,45.9,29.91,ENE,68,0.0,0.7,75,0.00,,,0.00,WUHU216HW,2013-03-27 02:35:00,
2013-03-26 19:40:00,53.6,45.9,29.92,ENE,68,0.0,0.7,75,0.00,,,0.00,WUHU216HW,2013-03-27 02:40:00,
2013-03-26 19:45:00,53.6,46.3,29.91,ENE,68,0.2,0.2,76,0.00,,,0.00,WUHU216HW,2013-03-27 02:45:00,
2013-03-26 19:50:00,53.5,46.1,29.92,ENE,68,0.0,0.2,76,0.00,,,0.00,WUHU216HW,2013-03-27 02:50:00,
2013-03-26 19:55:00,53.6,46.3,29.92,ENE,68,0.0,0.2,76,0.00,,,0.00,WUHU216HW,2013-03-27 02:55:00,
2013-03-26 20:00:00,53.5,46.1,29.92,ENE,68,0.0,0.2,76,0.00,,,0.00,WUHU216HW,2013-03-27 03:00:00,
2013-03-26 20:05:00,53.5,46.1,29.92,ENE,68,0.0,0.4,76,0.00,,,0.00,WUHU216HW,2013-03-27 03:05:00,
2013-03-26 20:10:00,53.5,46.1,29.92,ENE,68,0.2,0.4,76,0.00,,,0.00,WUHU216HW,2013-03-27 03:10:00,
2013-03-26 20:15:00,53.5,46.1,29.92,ENE,68,0.0,0.4,76,0.00,,,0.00,WUHU216HW,2013-03-27 03:15:00,
2013-03-26 20:20:00,53.3,45.9,29.92,ENE,68,0.0,0.2,76,0.00,,,0.00,WUHU216HW,2013-03-27 03:20:00,
2013-03-26 20:25:00,53.3,45.9,29.92,ENE,68,0.0,0.0,76,0.00,,,0.00,WUHU216HW,2013-03-27 03:25:00,
2013-03-26 20:30:00,53.3,46.3,29.92,ENE,68,0.0,0.0,77,0.00,,,0.00,WUHU216HW,2013-03-27 03:30:00,
2013-03-26 20:35:00,53.3,46.3,29.92,ENE,68,0.0,0.0,77,0.00,,,0.00,WUHU216HW,2013-03-27 03:35:00,
2013-03-26 20:40:00,53.3,46.3,29.92,ENE,68,0.0,0.0,77,0.00,,,0.00,WUHU216HW,2013-03-27 03:40:00,
2013-03-26 20:45:00,53.1,46.1,29.93,ENE,68,0.0,0.0,77,0.00,,,0.00,WUHU216HW,2013-03-27 03:45:00,
2013-03-26 20:50:00,52.9,46.3,29.92,ENE,68,0.0,0.0,78,0.00,,,0.00,WUHU216HW,2013-03-27 03:50:00,
2013-03-26 20:55:00,52.9,46.3,29.92,ENE,68,0.0,0.0,78,0.00,,,0.00,WUHU216HW,2013-03-27 03:55:00,
2013-03-26 21:00:00,52.9,46.3,29.93,ENE,68,0.0,0.0,78,0.00,,,0.00,WUHU216HW,2013-03-27 04:00:00,
2013-03-26 21:05:00,52.9,46.3,29.93,ENE,68,0.0,0.0,78,0.00,,,0.00,WUHU216HW,2013-03-27 04:05:00,
2013-03-26 21:10:00,53.1,46.4,29.93,ENE,68,0.0,0.0,78,0.00,,,0.00,WUHU216HW,2013-03-27 04:10:00,
2013-03-26 21:15:00,52.9,46.3,29.93,ENE,68,0.0,0.0,78,0.00,,,0.00,WUHU216HW,2013-03-27 04:15:00,
2013-03-26 21:20:00,52.7,46.1,29.93,ENE,68,0.0,0.0,78,0.00,,,0.00,WUHU216HW,2013-03-27 04:20:00,
2013-03-26 21:25:00,52.6,46.3,29.92,ENE,68,0.0,0.0,79,0.00,,,0.00,WUHU216HW,2013-03-27 04:25:00,
2013-03-26 21:30:00,52.2,45.9,29.92,ENE,68,0.0,0.0,79,0.00,,,0.00,WUHU216HW,2013-03-27 04:30:00,
2013-03-26 21:35:00,52.2,46.3,29.92,ENE,68,0.0,0.0,80,0.00,,,0.00,WUHU216HW,2013-03-27 04:35:00,
2013-03-26 21:40:00,52.0,46.1,29.92,ENE,68,0.0,0.0,80,0.00,,,0.00,WUHU216HW,2013-03-27 04:40:00,
2013-03-26 21:45:00,51.8,45.9,29.92,ENE,68,0.0,0.0,80,0.00,,,0.00,WUHU216HW,2013-03-27 04:45:00,
2013-03-26 21:50:00,51.7,45.7,29.93,ENE,68,0.0,0.0,80,0.00,,,0.00,WUHU216HW,2013-03-27 04:50:00,
2013-03-26 21:55:00,51.5,45.8,29.92,WSW,248,0.0,0.7,81,0.00,,,0.00,WUHU216HW,2013-03-27 04:55:00,
2013-03-26 22:00:00,51.3,45.6,29.93,WSW,248,0.0,0.7,81,0.00,,,0.00,WUHU216HW,2013-03-27 05:00:00,
2013-03-26 22:05:00,51.1,45.8,29.93,WNW,293,0.2,0.2,82,0.00,,,0.00,WUHU216HW,2013-03-27 05:05:00,
2013-03-26 22:10:00,50.8,45.7,29.92,NNW,338,0.0,0.4,83,0.00,,,0.00,WUHU216HW,2013-03-27 05:10:00,
2013-03-26 22:15:00,50.8,46.1,29.92,NNW,338,0.0,0.4,84,0.00,,,0.00,WUHU216HW,2013-03-27 05:15:00,
2013-03-26 22:20:00,50.6,45.9,29.92,NNW,338,0.0,0.2,84,0.00,,,0.00,WUHU216HW,2013-03-27 05:20:00,
2013-03-26 22:25:00,50.4,46.3,29.92,North,0,0.0,0.2,86,0.00,,,0.00,WUHU216HW,2013-03-27 05:25:00,
2013-03-26 22:30:00,50.4,46.3,29.92,WNW,293,0.2,0.2,86,0.00,,,0.00,WUHU216HW,2013-03-27 05:30:00,
2013-03-26 22:35:00,50.4,46.3,29.92,NW,315,0.2,0.2,86,0.00,,,0.00,WUHU216HW,2013-03-27 05:35:00,
2013-03-26 22:40:00,50.2,46.1,29.92,NW,315,0.4,0.4,86,0.00,,,0.00,WUHU216HW,2013-03-27 05:40:00,
2013-03-26 22:45:00,50.2,46.5,29.92,North,0,0.0,0.7,87,0.00,,,0.00,WUHU216HW,2013-03-27 05:45:00,
2013-03-26 22:50:00,50.0,45.9,29.92,North,0,0.0,0.7,86,0.00,,,0.00,WUHU216HW,2013-03-27 05:50:00,
2013-03-26 22:55:00,50.0,45.9,29.91,North,0,0.0,0.7,86,0.00,,,0.00,WUHU216HW,2013-03-27 05:55:00,
2013-03-26 23:00:00,50.0,45.9,29.91,North,0,0.0,0.2,86,0.00,,,0.00,WUHU216HW,2013-03-27 06:00:00,
2013-03-26 23:05:00,49.9,45.8,29.92,North,0,0.0,0.0,86,0.00,,,0.00,WUHU216HW,2013-03-27 06:05:00,
2013-03-26 23:10:00,49.7,45.6,29.92,North,0,0.0,0.0,86,0.00,,,0.00,WUHU216HW,2013-03-27 06:10:00,
2013-03-26 23:15:00,49.5,45.1,29.92,North,0,0.0,0.0,85,0.00,,,0.00,WUHU216HW,2013-03-27 06:15:00,
2013-03-26 23:20:00,49.1,44.8,29.91,North,0,0.0,0.4,85,0.00,,,0.00,WUHU216HW,2013-03-27 06:20:00,
2013-03-26 23:25:00,48.8,44.5,29.91,North,0,0.0,0.4,85,0.00,,,0.00,WUHU216HW,2013-03-27 06:25:00,
2013-03-26 23:30:00,48.6,44.3,29.91,North,0,0.0,0.0,85,0.00,,,0.00,WUHU216HW,2013-03-27 06:30:00,
2013-03-26 23:35:00,48.2,43.9,29.91,North,0,0.0,0.0,85,0.00,,,0.00,WUHU216HW,2013-03-27 06:35:00,
2013-03-26 23:40:00,47.9,43.9,29.91,North,0,0.0,0.0,86,0.00,,,0.00,WUHU216HW,2013-03-27 06:40:00,
2013-03-26 23:45:00,47.7,43.8,29.91,North,0,0.0,0.0,86,0.00,,,0.00,WUHU216HW,2013-03-27 06:45:00,
2013-03-26 23:50:00,47.5,43.2,29.91,North,0,0.0,0.0,85,0.00,,,0.00,WUHU216HW,2013-03-27 06:50:00,
2013-03-26 23:55:00,47.2,42.9,29.91,North,0,0.0,0.0,85,0.00,,,0.00,WUHU216HW,2013-03-27 06:55:00,